Location: Austin
(30.3000°N, 97.7500°W)
Time: 11:21:59
(UTC-05:00)

Cosmos 1515 - Pass Details

Date: 26 May 2023
Orbit: 485 x 490 km, 82.5° (Epoch: 31 May)

Event Time Altitude Azimuth Distance (km) Brightness Sun altitude
Exits shadow 21:24:49 - 179° (S) 2,130 6.5 -12.1°
Reaches altitude 10° 21:25:56 10° 178° (S) 1,664 5.9 -12.3°
Maximum altitude 21:29:33 70° 94° (E) 521 3.5 -12.9°
Drops below altitude 10° 21:33:12 10° 11° (N) 1,678 6.6 -13.6°
Sets 21:35:19 0° 9° (N) 2,564 7.6 -14.0°
